Weather History for Pine River, MN

Change the Weather History Date:

Monday, December 24, 2012

  Actual Average Record
Temperature  
Mean Temperature 2 °F -  
Max Temperature 10 °F 19 °F 39 °F (2006)
Min Temperature -7 °F 4 °F -31 °F (2013)
Degree Days  
Heating Degree Days 64    
Moisture  
Dew Point -2 °F    
Average Humidity 82    
Maximum Humidity 92    
Minimum Humidity 72    
Precipitation  
Precipitation 0.00 in - - ()
Sea Level Pressure  
Sea Level Pressure 30.16 in    
Wind  
Wind Speed 6 mph (NNW)    
Max Wind Speed 12 mph    
Max Gust Speed -    
Visibility 8 miles    
Events Snow    
Averages and records for this station are not official NWS values.
T = Trace of Precipitation, MM = Missing Value Source: NWS Daily Summary

Daily Weather History Graph

Daily Weather History Graph

Search for Another Location

Airport:

Trip Planner

Search our weather history database for the weather conditions in past years. The results will help you decide how hot, cold, wet, or windy it might be!

Date:

Astronomy

Dec. 24, 2012 Rise Set
Actual Time 8:00 AM CST 4:34 PM CST
Civil Twilight 7:25 AM CST 5:09 PM CST
Nautical Twilight 6:47 AM CST 5:47 PM CST
Astronomical Twilight 6:10 AM CST 6:24 PM CST
Moon 2:06 PM CST (12/24) 4:34 AM CST (12/24)
Length of Visible Light 9h 43m
Length of Day
8h 33m
Waxing Gibbous, 88% of the Moon is Illuminated
Dec 24
Waxing Gibbous
Dec 28
Full
Jan 4
Last Quarter
Jan 11
New
Jan 18
First Quarter

Hourly Weather History & Observations

Time (CST) Temp. Windchill Dew Point Humidity Pressure Visibility Wind Dir Wind Speed Gust Speed Precip Events Conditions
12:13 AM 10.4 °F 4.0 °F 6.8 °F 85% 30.07 in 2.0 mi North 3.5 mph - N/A Snow Light Snow
12:33 AM 10.4 °F -0.4 °F 6.8 °F 85% 30.07 in 2.5 mi North 6.9 mph - N/A Snow Light Snow
12:53 AM 10.4 °F -0.4 °F 6.8 °F 85% 30.06 in 3.0 mi North 6.9 mph - N/A Snow Light Snow
1:13 AM 8.6 °F -1.3 °F 6.8 °F 92% 30.06 in 3.0 mi North 5.8 mph - N/A Snow Light Snow
1:32 AM 8.6 °F 0.1 °F 6.8 °F 92% 30.06 in 3.0 mi North 4.6 mph - N/A Snow Light Snow
1:52 AM 8.6 °F -2.6 °F 6.8 °F 92% 30.06 in 2.5 mi NNW 6.9 mph - N/A Snow Light Snow
2:13 AM 8.6 °F 0.1 °F 5.0 °F 85% 30.07 in 2.5 mi NNW 4.6 mph - N/A Snow Light Snow
2:33 AM 8.6 °F -1.3 °F 5.0 °F 85% 30.08 in 2.5 mi NNW 5.8 mph - N/A Snow Light Snow
2:52 AM 8.6 °F -1.3 °F 3.2 °F 79% 30.08 in 2.5 mi NNW 5.8 mph - N/A Snow Light Snow
3:13 AM 8.6 °F -2.6 °F 3.2 °F 79% 30.08 in 3.0 mi North 6.9 mph - N/A Snow Light Snow
3:53 AM 6.8 °F -4.8 °F 3.2 °F 85% 30.07 in 5.0 mi NNW 6.9 mph - N/A Snow Light Snow
4:12 AM 6.8 °F -7.8 °F 1.4 °F 79% 30.08 in 7.0 mi North 10.4 mph - N/A   Overcast
4:32 AM 6.8 °F -4.8 °F 1.4 °F 79% 30.08 in 5.0 mi North 6.9 mph - N/A   Overcast
4:53 AM 6.8 °F -3.5 °F 1.4 °F 79% 30.08 in 5.0 mi NNW 5.8 mph - N/A Snow Light Snow
5:12 AM 6.8 °F -7.8 °F 1.4 °F 79% 30.08 in 10.0 mi North 10.4 mph - N/A   Overcast
5:33 AM 5.0 °F -10.8 °F -0.4 °F 78% 30.08 in 10.0 mi North 11.5 mph - N/A   Overcast
5:53 AM 3.2 °F -11.3 °F -0.4 °F 85% 30.09 in 10.0 mi North 9.2 mph - N/A   Overcast
6:13 AM 3.2 °F -13.1 °F -0.4 °F 85% 30.10 in 10.0 mi North 11.5 mph - N/A   Overcast
6:33 AM 1.4 °F -11.3 °F -2.2 °F 85% 30.10 in 10.0 mi NNW 6.9 mph - N/A   Overcast
6:53 AM 1.4 °F -9.9 °F -2.2 °F 85% 30.10 in 10.0 mi NNW 5.8 mph - N/A   Scattered Clouds
7:13 AM -0.4 °F -12.0 °F -4.0 °F 85% 30.10 in 10.0 mi NNW 5.8 mph - N/A   Clear
7:53 AM -0.4 °F -10.4 °F -5.8 °F 78% 30.11 in 10.0 mi NNW 4.6 mph - N/A   Clear
8:11 AM -2.2 °F -12.5 °F -5.8 °F 85% 30.10 in 10.0 mi North 4.6 mph - N/A   Clear
8:32 AM -2.2 °F -10.4 °F -5.8 °F 85% 30.10 in 10.0 mi North 3.5 mph - N/A   Clear
8:53 AM -2.2 °F -12.5 °F -5.8 °F 85% 30.10 in 10.0 mi North 4.6 mph - N/A   Clear
9:13 AM -0.4 °F -14.7 °F -5.8 °F 78% 30.12 in 10.0 mi NNW 8.1 mph - N/A   Clear
9:32 AM -0.4 °F -14.7 °F -5.8 °F 78% 30.13 in 3.0 mi NNW 8.1 mph - N/A Snow Light Snow
9:53 AM -0.4 °F -16.7 °F -5.8 °F 78% 30.14 in 10.0 mi North 10.4 mph - N/A Snow Light Snow
10:12 AM -0.4 °F -14.7 °F -5.8 °F 78% 30.15 in 10.0 mi NW 8.1 mph - N/A   Scattered Clouds
10:33 AM -0.4 °F -14.7 °F -5.8 °F 78% 30.17 in 10.0 mi NW 8.1 mph - N/A   Clear
10:53 AM -0.4 °F -15.7 °F -5.8 °F 78% 30.17 in 10.0 mi NW 9.2 mph - N/A Snow Light Snow
11:13 AM -0.4 °F -14.7 °F -5.8 °F 78% 30.17 in 4.0 mi NNW 8.1 mph - N/A Snow Light Snow
11:33 AM 1.4 °F -12.5 °F -5.8 °F 72% 30.18 in 10.0 mi NW 8.1 mph - N/A   Scattered Clouds
11:53 AM 1.4 °F -13.5 °F -5.8 °F 72% 30.17 in 10.0 mi NW 9.2 mph - N/A   Scattered Clouds
12:13 PM 1.4 °F -13.5 °F -4.0 °F 78% 30.17 in 7.0 mi NNW 9.2 mph - N/A   Scattered Clouds
12:33 PM 1.4 °F -12.5 °F -4.0 °F 78% 30.17 in 10.0 mi North 8.1 mph - N/A   Clear
12:53 PM 3.2 °F -9.1 °F -2.2 °F 78% 30.17 in 10.0 mi NNW 6.9 mph - N/A   Clear
1:13 PM 3.2 °F -10.3 °F -2.2 °F 78% 30.16 in 10.0 mi NW 8.1 mph - N/A   Clear
1:33 PM 3.2 °F -11.3 °F -2.2 °F 78% 30.15 in 10.0 mi NNW 9.2 mph - N/A   Clear
1:52 PM 3.2 °F -11.3 °F -2.2 °F 78% 30.15 in 10.0 mi NNW 9.2 mph - N/A   Clear
2:12 PM 3.2 °F -9.1 °F -2.2 °F 78% 30.16 in 10.0 mi North 6.9 mph - N/A   Clear
2:32 PM 5.0 °F -2.1 °F -0.4 °F 78% 30.16 in 10.0 mi NNW 3.5 mph - N/A   Clear
2:52 PM 5.0 °F -8.1 °F -0.4 °F 78% 30.16 in 10.0 mi North 8.1 mph - N/A   Clear
3:13 PM 5.0 °F -9.1 °F -0.4 °F 78% 30.17 in 10.0 mi NNW 9.2 mph - N/A   Clear
3:32 PM 5.0 °F -9.1 °F -0.4 °F 78% 30.17 in 10.0 mi North 9.2 mph - N/A   Clear
3:53 PM 3.2 °F -9.1 °F -0.4 °F 85% 30.17 in 10.0 mi North 6.9 mph - N/A   Clear
4:13 PM 3.2 °F -6.2 °F -0.4 °F 85% 30.18 in 10.0 mi NNW 4.6 mph - N/A   Clear
4:33 PM 3.2 °F -7.8 °F -0.4 °F 85% 30.19 in 10.0 mi NNW 5.8 mph - N/A   Clear
4:52 PM 3.2 °F -9.1 °F -2.2 °F 78% 30.19 in 10.0 mi NNW 6.9 mph - N/A   Clear
5:13 PM 3.2 °F -6.2 °F -2.2 °F 78% 30.20 in 10.0 mi NNW 4.6 mph - N/A   Clear
5:33 PM 1.4 °F -8.3 °F -2.2 °F 85% 30.20 in 10.0 mi NW 4.6 mph - N/A   Clear
5:53 PM 1.4 °F -6.2 °F -2.2 °F 85% 30.21 in 10.0 mi NNW 3.5 mph - N/A   Clear
6:13 PM 1.4 °F -6.2 °F -2.2 °F 85% 30.22 in 10.0 mi NNW 3.5 mph - N/A   Clear
6:32 PM 1.4 °F -6.2 °F -2.2 °F 85% 30.22 in 10.0 mi NW 3.5 mph - N/A   Clear
6:53 PM -0.4 °F -8.3 °F -4.0 °F 85% 30.23 in 7.0 mi NW 3.5 mph - N/A   Clear
7:13 PM -0.4 °F -10.4 °F -4.0 °F 85% 30.25 in 10.0 mi WNW 4.6 mph - N/A   Clear
7:33 PM -0.4 °F -8.3 °F -5.8 °F 78% 30.25 in 10.0 mi NW 3.5 mph - N/A   Clear
7:53 PM -0.4 °F -10.4 °F -5.8 °F 78% 30.26 in 10.0 mi NW 4.6 mph - N/A   Clear
8:12 PM -2.2 °F -10.4 °F -5.8 °F 85% 30.26 in 10.0 mi NW 3.5 mph - N/A   Clear
8:32 PM -2.2 °F -12.5 °F -5.8 °F 85% 30.27 in 10.0 mi NW 4.6 mph - N/A   Clear
8:52 PM -2.2 °F -10.4 °F -5.8 °F 85% 30.28 in 10.0 mi NW 3.5 mph - N/A   Clear
9:12 PM -2.2 °F -10.4 °F -7.6 °F 78% 30.28 in 10.0 mi NW 3.5 mph - N/A   Clear
9:32 PM -2.2 °F -12.5 °F -7.6 °F 78% 30.28 in 10.0 mi NW 4.6 mph - N/A   Clear
9:53 PM -4.0 °F -16.3 °F -7.6 °F 85% 30.29 in 10.0 mi NW 5.8 mph - N/A   Clear
10:12 PM -4.0 °F -14.6 °F -7.6 °F 85% 30.30 in 10.0 mi NW 4.6 mph - N/A   Clear
10:33 PM -5.8 °F - -9.4 °F 84% 30.30 in 10.0 mi Calm Calm - N/A   Clear
10:53 PM -5.8 °F -14.5 °F -9.4 °F 84% 30.30 in 10.0 mi NW 3.5 mph - N/A   Clear
11:13 PM -5.8 °F -14.5 °F -9.4 °F 84% 30.31 in 10.0 mi NW 3.5 mph - N/A   Clear
11:32 PM -7.6 °F -16.5 °F -11.2 °F 84% 30.31 in 10.0 mi NW 3.5 mph - N/A   Clear
11:53 PM -7.6 °F -20.6 °F -11.2 °F 84% 30.31 in 10.0 mi NW 5.8 mph - N/A   Clear